{"data":{"norad_id":59219,"intl_designator":"2024-046U","name":"STARLINK-31518","alt_names":[],"object_type":"PAYLOAD","status":"ACTIVE","operator":null,"country":"US","launch_date":"2024-03-11","launch_site_code":"AFWTR","launch_vehicle":null,"mission":null,"orbit_class":"UNKNOWN","rcs_meters":null,"size_class":null,"mass_kg":null,"dimensions":null,"purposes":["comms"],"wikipedia_slug":null,"has_3d_model":false,"image_url":null,"decayed_at":null,"tle_current":{"epoch":"2026-09-20T15:39:34.416288Z","epoch_age_seconds":145685,"freshness":"FRESH","line1":"1 59219U 24046U   26263.65248167  .00000875  00000+0  37036-4 0  9992","line2":"2 59219  53.1611 325.1870 0002090  91.1755 268.9487 15.34398396142956","mean_motion":15.34398396,"eccentricity":0.000209,"inclination_deg":53.1611,"raan_deg":325.187,"arg_perigee_deg":91.1755,"mean_anomaly_deg":268.9487,"bstar":3.7036e-5,"rev_number":14295,"period_min":93.847856186106,"perigee_km":461.27827103069,"apogee_km":464.13774424388,"semimajor_km":6840.8450076373,"source":"CELESTRAK","updated_at":"2026-09-21T09:00:34.072397Z"}}}